Wind_Speed
47 48 48 49 49 49 49 48 48 48 47 46 46 47 47 47 47 48 49 51 53 57 60 62 64 66 69 71 73 74 73 73 72 71 71 71 71 72 73 73 75 77 79 80 81 81 80 80 81 80 79 77 74 70 66 63 60 56 52 48 46 46 46
45 46 48 49 49 50 50 50 51 50 50 49 49 50 52 52 52 52 53 54 56 58 61 64 66 69 71 73 74 74 73 73 73 73 73 74 75 76 77 78 80 81 82 82 82 81 79 78 77 78 78 77 75 71 66 63 60 57 53 50 48 47 47
47 46 48 49 50 50 51 51 51 51 51 50 50 51 51 52 52 52 53 54 57 61 64 67 69 71 73 74 74 73 74 74 75 76 77 78 79 80 81 83 84 85 85 84 83 81 80 78 76 76 75 73 72 70 66 63 61 58 55 52 49 48 48
50 48 48 49 50 50 50 51 52 52 51 51 50 50 49 50 50 51 54 58 62 66 69 71 73 74 74 74 73 74 75 76 77 78 80 80 81 82 84 86 86 86 86 84 83 82 81 80 79 78 75 72 69 69 67 65 62 60 57 54 51 48 49
52 50 48 49 49 49 49 50 50 50 50 49 48 49 49 51 53 55 59 64 67 70 72 74 74 74 73 73 74 76 77 78 80 81 82 82 84 86 87 88 87 87 86 85 83 83 83 83 82 79 76 72 69 68 68 66 65 62 59 56 54 50 49
53 52 50 48 48 47 47 48 48 48 47 47 48 50 53 56 59 61 64 67 70 72 73 74 74 73 73 75 77 79 80 81 82 83 84 85 87 88 88 88 87 86 85 85 85 85 86 85 83 79 75 71 69 68 68 67 65 63 61 58 56 53 51
53 53 51 49 48 47 46 46 47 48 49 50 52 54 57 60 62 65 67 69 71 72 73 73 74 75 77 79 81 82 82 84 85 86 87 88 89 89 88 87 86 86 86 86 87 88 87 86 82 78 74 71 70 69 68 67 65 63 62 59 57 55 53
53 53 52 51 50 49 48 48 49 51 53 55 56 58 60 63 65 67 69 70 72 73 74 75 77 79 81 82 83 84 85 86 87 88 89 89 89 88 87 87 86 86 87 88 89 89 88 85 81 77 73 72 70 69 69 67 65 63 62 60 58 55 54
52 52 52 51 51 50 50 51 53 54 56 58 60 61 63 65 67 69 70 72 74 76 77 79 80 82 83 84 84 86 87 88 89 89 89 89 88 87 87 86 87 88 89 90 90 90 87 84 80 77 74 72 70 68 68 67 65 63 61 60 58 56 54
51 51 51 51 52 52 53 54 55 57 58 60 62 63 65 67 68 70 72 74 76 78 79 80 82 83 84 85 86 88 88 89 88 88 88 87 87 87 87 87 88 89 91 91 91 89 86 83 80 78 76 73 70 67 65 65 64 62 61 60 58 57 56
51 51 52 53 54 55 56 57 58 59 60 61 63 64 66 68 70 72 74 76 77 79 80 81 83 84 85 86 87 88 88 87 87 86 86 86 87 87 87 88 90 91 92 91 90 88 85 83 81 79 77 74 70 67 64 62 62 61 60 60 59 57 57
52 52 54 55 56 57 58 59 60 61 62 63 64 66 68 69 71 73 75 77 78 79 81 82 83 84 85 86 86 86 85 85 85 86 86 87 87 87 89 90 91 92 92 91 89 86 84 83 81 79 76 73 69 67 64 61 61 60 59 59 59 57 56
51 53 54 55 56 57 58 58 59 60 61 63 64 66 68 70 72 74 76 77 79 80 81 82 83 83 83 84 84 84 84 85 86 86 87 87 88 89 90 92 92 92 91 89 87 86 84 83 80 77 74 71 67 65 62 60 60 60 59 58 58 57 56
50 51 52 53 54 55 56 58 59 60 62 63 65 67 70 72 73 75 76 77 78 79 80 80 80 81 81 82 83 83 84 85 86 86 87 88 89 90 91 92 92 91 90 88 86 86 84 82 78 75 72 69 65 62 61 59 57 58 58 57 56 56 55
48 50 51 53 54 55 57 59 60 62 64 66 67 69 71 73 74 74 75 76 76 77 78 78 79 80 81 82 83 83 84 85 86 87 88 89 90 90 91 91 91 90 88 87 87 85 83 79 76 73 70 67 64 62 59 58 56 55 55 56 55 55 56
49 50 51 52 54 56 58 60 61 63 65 66 68 69 70 71 72 73 73 74 75 76 76 77 78 80 81 82 82 83 84 85 87 88 88 89 90 90 91 90 90 89 89 88 87 84 80 77 74 71 68 66 64 62 59 57 56 55 55 56 57 56 57
50 51 52 53 54 55 57 59 61 62 63 64 66 67 68 69 70 71 72 73 74 74 75 77 78 80 81 82 83 84 85 86 87 87 88 89 90 90 90 90 89 89 89 88 85 81 77 74 72 69 67 66 63 62 60 58 57 57 57 57 58 58 59
52 53 53 54 54 55 57 58 60 61 62 63 65 66 67 68 70 71 71 72 73 75 76 78 79 81 82 82 83 84 85 85 86 87 89 90 90 90 90 90 90 90 89 86 82 78 75 72 71 69 67 66 64 63 62 61 60 60 60 60 60 60 60
53 54 54 55 56 56 58 59 61 62 63 64 65 66 67 69 70 71 72 73 75 76 78 79 80 81 82 82 83 83 84 85 87 88 89 89 89 89 90 90 90 89 85 82 78 76 74 72 70 69 68 66 65 64 64 63 63 63 63 62 62 62 62
55 55 55 56 57 58 59 61 62 63 64 65 66 67 68 69 70 72 73 75 76 78 78 79 80 81 81 82 82 84 85 86 86 87 87 87 88 89 90 90 88 85 81 78 75 74 73 72 70 68 67 67 67 66 66 66 65 65 65 65 65 65 65
57 57 57 58 59 60 61 62 63 64 65 66 67 68 69 70 71 73 74 75 76 77 78 79 80 81 81 82 83 84 84 84 84 84 85 87 88 89 89 88 84 81 78 75 73 72 71 70 69 68 67 68 68 68 68 68 68 68 68 68 68 68 68
58 58 59 60 61 62 63 64 64 65 66 67 68 69 69 71 72 73 74 75 76 77 78 79 80 81 81 82 82 82 82 82 82 83 85 87 88 88 86 84 81 78 76 74 72 71 69 68 67 67 68 69 69 70 70 70 69 69 69 69 69 69 69
59 59 60 60 61 62 63 64 65 65 66 67 67 68 69 70 71 72 74 75 76 78 79 79 80 80 80 80 80 80 80 81 82 84 85 86 86 85 83 80 78 76 74 73 72 71 69 69 68 68 68 69 69 69 70 70 70 69 68 67 67 66 66
58 58 58 59 60 61 63 63 64 64 65 66 67 68 69 70 71 73 75 76 77 77 77 77 77 77 77 77 78 78 80 81 83 84 85 85 84 82 79 77 75 74 74 73 72 71 71 71 71 71 71 70 70 70 69 69 67 66 64 63 62 62 62
55 55 57 58 59 60 60 61 62 63 64 65 67 68 70 71 73 74 75 75 74 74 74 74 74 75 75 76 77 79 81 82 84 84 84 83 81 79 76 74 73 73 72 72 72 72 73 73 73 73 73 73 73 71 69 66 64 61 60 59 59 59 58
53 54 56 57 58 59 59 61 62 64 65 66 68 69 71 72 72 72 72 71 71 71 71 72 73 74 75 76 78 80 82 83 83 83 81 80 77 75 73 72 72 71 71 71 71 72 73 74 75 75 75 74 73 70 67 65 62 59 57 55 55 55 55
54 56 57 58 59 60 62 63 64 65 66 67 69 70 70 70 69 69 68 68 69 69 70 71 72 74 75 77 79 81 82 82 82 81 79 76 74 73 72 71 71 70 70 71 72 73 74 75 76 76 75 73 70 68 65 63 60 58 56 54 52 52 51
56 57 58 58 59 61 63 64 65 66 67 68 68 68 67 66 66 66 66 67 68 69 70 71 73 74 76 78 80 81 81 81 80 78 76 73 72 71 71 70 70 71 72 73 73 74 75 76 76 75 73 70 67 65 62 60 58 56 55 54 51 49 48
57 57 58 59 61 62 63 64 66 66 66 66 65 64 64 64 64 65 67 68 69 70 71 72 73 75 77 78 79 80 80 79 77 75 73 71 70 70 70 71 71 72 73 73 74 75 75 75 74 72 69 67 64 62 60 58 56 54 53 52 50 47 46
58 58 60 61 62 63 64 65 65 65 64 63 62 62 63 64 65 66 67 68 69 70 71 73 75 76 77 78 78 78 78 76 73 71 70 70 70 70 70 71 72 72 73 74 75 75 74 73 71 68 65 63 60 58 57 56 55 53 52 51 47 45 43
59 60 60 61 62 63 64 64 63 62 61 61 61 62 63 64 65 66 67 68 69 70 72 74 75 76 76 77 77 76 74 72 70 69 69 69 70 70 71 71 72 72 73 74 74 73 71 69 67 64 61 58 56 55 54 53 52 52 52 51 49 46 44
59 60 61 62 62 62 62 61 60 60 61 61 62 63 64 65 66 67 68 69 70 71 72 73 74 75 76 76 75 73 70 68 67 67 68 69 69 70 70 70 71 72 73 73 72 70 68 65 62 59 56 54 53 52 51 49 49 49 50 50 50 48 46
60 60 60 61 61 60 59 59 60 60 61 62 63 64 65 65 66 67 68 69 70 71 72 73 73 74 74 73 71 69 67 66 66 67 68 68 68 68 69 70 71 72 72 71 69 67 65 61 58 55 53 51 50 49 48 47 46 46 47 48 48 47 45
59 59 59 59 59 59 59 60 61 61 62 63 64 64 65 66 67 67 68 69 70 70 71 72 73 73 72 70 67 65 64 65 66 67 67 67 67 67 69 70 71 71 71 69 67 64 61 58 55 53 51 49 47 46 45 45 44 45 46 46 45 44 42
57 57 57 58 58 59 60 61 61 62 62 63 64 64 65 66 67 67 68 68 69 70 71 72 72 70 68 66 64 63 63 65 65 65 65 65 66 68 69 71 71 70 69 67 64 61 58 55 53 51 49 47 45 45 44 44 43 43 44 43 42 40 39
56 57 57 58 59 60 60 61 61 62 63 63 64 65 65 66 66 66 66 67 68 70 70 70 69 67 64 62 62 62 63 64 64 63 64 65 67 68 70 70 70 69 67 64 61 57 55 53 51 48 46 45 44 44 44 43 42 42 42 42 40 39 38
57 57 58 59 59 60 60 61 61 62 63 63 64 64 64 65 65 65 66 67 68 69 69 68 66 63 61 61 61 61 62 62 62 62 63 65 67 69 70 70 68 67 64 60 57 55 53 51 48 45 44 44 44 44 43 42 41 40 40 41 41 39 37
Wind_Direction
268 269 269 269 269 270 271 271 269 267 267 267 266 265 266 266 268 270 273 274 275 276 279 281 284 286 289 292 295 297 300 302 304 306 307 309 309 310 311 312 313 314 314 315 314 315 315 316 316 316 316 315 314 312 311 308 306 304 303 301 297 293 291
269 268 268 268 269 270 272 273 273 271 269 269 269 268 267 268 270 273 277 279 279 280 281 282 285 288 292 295 297 299 301 303 305 307 308 308 309 310 310 311 312 312 313 312 312 313 313 314 315 315 314 313 311 310 309 307 304 303 301 299 295 292 289
269 270 269 268 269 271 273 276 276 274 273 272 272 271 271 271 274 277 279 280 280 281 283 285 288 292 294 297 299 301 303 304 306 306 307 308 309 310 310 311 311 312 312 311 311 312 312 313 314 313 312 311 309 307 306 304 303 302 300 296 292 290 287
268 272 271 270 270 271 274 276 276 276 276 275 275 275 275 275 277 277 277 278 280 283 286 289 291 293 296 297 299 301 303 304 305 306 307 308 309 309 310 311 311 311 311 311 312 312 313 313 313 313 311 310 307 305 303 302 301 300 299 296 292 288 284
266 269 272 272 271 272 274 275 275 275 276 277 277 277 277 276 276 276 277 279 282 286 288 291 293 295 297 298 300 301 302 303 304 305 306 307 308 309 309 310 310 311 311 312 312 313 313 313 313 312 311 309 307 304 303 301 300 299 297 295 291 287 283
265 267 271 272 272 273 274 274 273 273 273 274 274 274 274 275 276 277 279 282 285 288 290 293 294 296 297 298 299 300 301 302 303 305 306 306 307 308 309 309 310 310 311 311 312 313 313 313 312 311 310 308 306 304 302 301 299 298 296 293 290 287 282
265 267 270 272 272 273 274 274 272 271 271 270 270 270 272 274 277 279 282 284 287 289 291 292 294 295 296 297 298 299 300 302 303 304 305 306 306 307 308 309 309 310 310 311 312 312 312 312 311 310 309 308 306 304 301 299 298 296 294 291 288 285 282
265 267 269 271 272 273 273 272 271 271 270 270 270 271 273 275 278 280 283 285 287 289 290 291 292 293 295 296 297 299 301 302 303 304 304 305 306 307 308 308 309 309 310 311 311 311 311 311 310 309 308 307 306 303 301 299 297 294 292 289 286 283 280
265 267 269 271 272 273 272 271 270 270 270 271 272 273 274 277 279 281 283 285 287 288 289 290 292 293 295 297 298 299 301 301 302 303 304 305 306 307 307 308 308 309 310 310 310 310 310 310 309 309 308 307 305 303 300 298 296 294 291 288 285 282 279
264 266 268 270 271 271 271 271 271 272 272 273 274 276 277 279 281 283 284 286 287 288 290 291 293 294 296 297 299 299 300 301 302 303 304 305 306 307 307 308 309 309 309 309 309 309 309 309 309 308 308 306 304 301 298 296 295 293 291 288 285 283 279
263 265 266 268 269 269 271 272 274 275 277 278 279 280 281 283 284 285 286 287 289 290 292 293 294 295 297 297 298 299 300 301 302 303 305 306 307 307 308 308 309 309 309 309 309 309 309 309 309 308 307 306 304 301 298 294 292 291 289 287 285 283 280
262 264 266 267 269 271 273 274 276 278 279 281 282 283 283 284 285 286 287 289 290 292 293 294 295 296 297 298 298 300 301 302 303 304 305 306 307 308 308 308 308 308 308 309 309 309 310 309 309 308 306 304 302 300 297 294 291 289 287 286 284 281 279
265 267 268 270 272 273 275 277 278 279 280 281 282 283 284 285 286 287 289 290 291 292 293 294 295 296 297 298 299 300 302 303 304 305 306 306 307 308 308 308 308 308 309 309 310 310 309 309 308 306 304 302 300 298 295 293 290 288 287 285 283 281 278
269 270 272 273 274 275 276 277 278 279 279 280 282 283 284 285 287 288 289 290 291 292 293 295 296 297 298 299 300 301 302 303 304 305 306 306 307 307 307 307 308 308 309 309 309 309 309 308 306 305 303 301 298 296 294 292 289 287 286 284 282 281 278
272 272 273 274 274 275 275 276 277 278 279 280 282 283 285 286 287 289 290 291 292 293 295 296 297 298 299 300 301 302 303 304 305 305 306 306 306 306 307 308 308 309 309 309 309 309 308 307 305 304 302 300 298 296 294 292 290 287 286 285 283 281 279
274 274 275 275 276 276 277 278 279 280 281 283 284 285 286 287 288 289 291 292 293 295 296 296 297 298 300 301 302 303 304 304 305 305 305 305 306 307 307 308 308 308 309 309 309 309 307 306 305 304 302 300 299 297 295 292 290 288 286 285 283 281 280
276 277 278 279 279 280 281 281 282 283 284 284 285 286 287 288 289 291 292 293 294 295 296 297 298 299 301 302 302 303 304 304 304 305 305 306 307 307 308 308 308 309 309 309 309 308 307 306 305 303 302 301 299 298 296 293 290 288 285 283 281 279 277
278 279 281 282 282 283 283 283 283 284 285 285 286 287 288 290 291 292 293 294 295 296 297 298 299 300 301 302 302 303 303 304 304 305 306 307 307 307 308 308 309 309 310 309 308 308 307 306 305 304 303 302 300 298 296 294 291 289 286 284 282 279 276
280 281 281 282 283 283 283 283 284 285 286 287 288 289 290 291 292 294 294 295 296 297 298 299 300 300 301 302 302 303 303 304 305 306 306 307 307 308 308 309 309 309 309 309 308 308 307 306 305 304 303 302 300 299 297 295 293 291 289 287 284 282 279
280 280 281 281 282 282 283 284 285 286 287 288 290 291 292 293 293 294 295 295 296 297 298 299 300 300 301 302 302 303 304 305 306 306 306 307 307 308 309 309 309 309 309 308 307 307 306 306 305 304 303 302 300 299 298 296 295 293 292 290 288 286 283
280 280 281 282 283 283 284 285 286 287 289 290 291 291 292 293 293 294 295 296 296 297 298 299 300 301 301 302 303 303 304 305 306 306 307 307 308 308 308 309 309 308 307 306 306 306 305 306 305 304 303 302 301 300 299 298 297 295 294 292 290 288 285
279 280 282 282 283 284 284 285 287 288 289 290 290 291 292 293 294 295 295 296 297 298 299 300 300 301 302 302 303 304 304 305 306 306 307 307 308 308 308 308 308 307 307 306 306 306 306 305 305 304 303 302 301 300 299 299 297 296 295 293 291 289 287
278 279 280 281 282 283 284 285 286 287 288 289 290 291 293 294 295 295 296 297 297 298 299 300 301 302 302 303 303 304 305 305 306 306 307 308 308 308 308 308 308 308 308 308 308 307 307 306 305 304 303 302 301 301 300 299 298 297 295 293 291 289 287
278 279 280 280 281 282 284 285 286 287 288 290 291 292 294 294 295 296 296 297 298 299 300 301 301 302 303 303 304 305 305 306 307 307 308 308 309 309 309 309 309 309 309 310 309 309 308 307 306 305 305 304 304 303 302 301 300 298 296 294 291 289 286
278 278 279 280 281 283 285 286 287 289 290 291 292 293 294 295 295 296 297 298 299 300 300 301 302 302 303 304 305 305 306 307 308 308 309 309 309 309 309 309 310 311 311 311 310 309 308 308 308 308 308 307 307 306 305 303 301 299 297 294 292 289 286
278 279 280 282 283 285 287 288 289 290 291 292 293 294 294 295 296 297 298 299 299 300 301 301 302 303 304 305 306 306 307 308 309 309 309 309 309 310 310 311 311 311 311 311 310 310 310 310 310 310 310 309 308 307 306 305 303 300 298 295 292 290 288
280 281 283 283 284 286 287 288 289 290 291 292 294 294 295 296 297 297 298 299 300 300 301 303 304 304 305 306 307 308 308 309 309 310 310 310 310 311 311 312 312 312 312 311 311 311 311 311 311 311 310 310 309 309 308 306 305 303 300 298 295 293 291
280 281 282 282 284 285 287 288 289 291 292 293 294 295 295 296 297 298 299 299 300 302 303 304 305 305 306 307 308 308 309 309 310 310 310 311 311 312 313 313 313 313 312 312 312 312 312 311 311 311 311 311 310 309 308 306 305 304 302 301 299 298 295
281 282 282 283 285 286 288 289 291 292 293 294 294 295 296 297 297 298 299 300 302 303 304 305 305 306 307 308 309 309 309 310 310 311 311 312 312 313 314 314 314 313 312 312 312 312 312 312 312 312 312 312 311 310 308 307 306 305 303 302 301 300 298
283 284 285 286 287 288 289 290 291 292 293 293 294 295 296 297 298 299 300 302 303 304 305 306 306 307 308 308 309 310 310 311 311 311 312 313 314 314 315 314 313 312 312 313 313 313 313 313 313 313 313 312 311 310 309 308 308 307 306 305 305 305 303
283 284 285 286 287 288 289 290 291 292 293 294 295 295 296 298 299 300 302 303 304 305 306 306 307 308 308 309 310 310 311 311 312 312 312 314 314 314 314 313 312 312 313 314 314 314 314 314 314 314 313 313 312 311 310 310 311 311 311 311 312 312 311
283 284 285 286 287 288 289 290 291 292 293 294 295 296 297 299 300 302 303 304 305 306 306 307 308 308 309 310 310 311 311 311 311 312 313 314 314 313 313 312 313 313 314 315 315 315 315 315 314 314 314 313 313 312 313 313 314 315 315 315 316 316 315
282 283 284 285 286 287 289 290 291 292 293 294 295 297 298 300 301 302 304 305 306 306 307 308 308 309 309 310 311 311 311 311 312 312 313 313 313 313 313 313 314 315 316 316 316 316 316 316 316 316 316 315 315 315 315 316 317 317 316 316 316 315 314
281 282 283 285 286 287 289 290 291 292 294 295 296 298 299 300 302 303 304 305 306 307 307 308 309 309 310 310 311 311 311 311 312 312 313 313 313 314 314 315 316 317 317 317 317 317 317 317 318 318 318 318 317 317 317 319 319 319 318 317 316 316 315
281 282 284 285 286 288 289 290 291 293 294 296 297 298 300 301 303 304 305 306 306 307 308 308 309 310 310 310 311 311 311 311 311 312 313 315 315 315 316 317 318 318 318 319 319 319 319 319 320 320 320 320 320 321 321 322 321 320 320 319 319 320 320
282 283 284 285 287 288 290 291 292 293 295 296 298 299 301 302 303 304 305 306 306 307 308 309 309 310 310 310 311 310 310 311 312 314 316 316 316 317 317 318 319 319 320 320 320 321 321 321 321 322 322 323 324 324 324 324 323 323 323 323 324 326 326
282 284 285 286 288 289 290 291 293 294 295 297 298 300 301 302 304 305 305 306 307 308 309 309 309 309 310 310 310 309 310 312 315 317 318 318 317 318 319 319 320 321 321 322 322 322 322 322 322 323 325 327 327 326 326 325 326 327 328 329 330 331 330
Height
10750 10750 10748 10746 10745 10745 10745 10745 10744 10744 10744 10744 10744 10743 10742 10742 10741 10740 10740 10739 10739 10737 10735 10733 10732 10730 10728 10725 10722 10719 10716 10713 10710 10707 10704 10702 10699 10696 10693 10689 10685 10682 10680 10676 10671 10666 10660 10652 10644 10639 10637 10634 10634 10634 10632 10628 10627 10627 10627 10628 10627 10623 10620
10746 10745 10743 10742 10741 10741 10741 10740 10739 10739 10740 10740 10739 10738 10738 10737 10736 10736 10735 10734 10734 10732 10730 10729 10727 10725 10722 10718 10715 10711 10709 10706 10702 10699 10696 10693 10691 10688 10685 10682 10680 10678 10675 10672 10668 10664 10660 10655 10646 10637 10630 10624 10620 10621 10623 10621 10618 10619 10621 10621 10620 10618 10615
10741 10740 10739 10737 10737 10737 10737 10736 10735 10735 10735 10735 10734 10733 10733 10732 10732 10731 10730 10729 10728 10727 10725 10723 10721 10719 10715 10712 10708 10704 10701 10698 10695 10692 10688 10685 10682 10679 10676 10673 10671 10669 10666 10663 10660 10657 10654 10651 10646 10638 10629 10622 10613 10608 10610 10612 10611 10611 10613 10613 10613 10612 10608
10735 10734 10733 10733 10733 10733 10733 10732 10731 10731 10730 10729 10728 10728 10727 10727 10726 10726 10725 10724 10723 10720 10718 10716 10714 10712 10709 10705 10701 10698 10694 10691 10687 10684 10681 10677 10674 10670 10667 10665 10662 10659 10656 10653 10649 10647 10644 10641 10638 10632 10626 10620 10611 10603 10599 10600 10601 10602 10604 10604 10605 10605 10602
10729 10729 10728 10728 10729 10729 10729 10727 10726 10725 10724 10723 10723 10723 10722 10722 10721 10721 10719 10718 10716 10714 10711 10709 10707 10705 10701 10697 10694 10691 10688 10684 10680 10677 10673 10669 10666 10663 10660 10656 10653 10650 10646 10643 10639 10636 10634 10631 10628 10623 10618 10612 10606 10599 10593 10590 10590 10591 10593 10593 10594 10596 10595
10723 10723 10724 10724 10724 10725 10724 10723 10721 10720 10719 10719 10719 10718 10717 10716 10716 10714 10713 10711 10710 10707 10704 10702 10699 10697 10694 10690 10687 10684 10680 10677 10673 10670 10666 10662 10658 10656 10652 10649 10645 10641 10637 10634 10630 10627 10624 10621 10618 10614 10609 10604 10599 10592 10586 10583 10581 10581 10582 10583 10583 10585 10586
10718 10718 10719 10719 10719 10719 10719 10718 10716 10715 10715 10714 10713 10713 10711 10710 10709 10708 10706 10704 10703 10701 10698 10695 10692 10690 10687 10683 10680 10677 10673 10669 10666 10663 10658 10654 10651 10648 10645 10641 10637 10633 10629 10626 10622 10619 10616 10613 10609 10605 10601 10596 10591 10585 10579 10575 10573 10571 10570 10572 10573 10574 10575
10713 10713 10713 10713 10714 10714 10714 10713 10711 10710 10709 10708 10707 10707 10705 10704 10703 10701 10700 10698 10696 10694 10691 10688 10685 10683 10679 10676 10672 10669 10665 10661 10658 10655 10651 10647 10644 10641 10637 10633 10629 10625 10621 10617 10614 10611 10607 10604 10600 10597 10593 10588 10581 10575 10569 10566 10566 10564 10561 10560 10562 10564 10564
10709 10709 10708 10708 10709 10709 10709 10707 10706 10705 10704 10702 10702 10701 10699 10698 10697 10695 10693 10691 10689 10687 10683 10680 10678 10674 10671 10667 10664 10660 10656 10653 10650 10646 10643 10639 10636 10633 10628 10624 10620 10616 10612 10609 10605 10601 10598 10594 10591 10587 10585 10581 10575 10568 10560 10554 10554 10555 10552 10550 10551 10552 10554
10704 10704 10704 10704 10704 10703 10703 10702 10701 10700 10698 10697 10696 10695 10693 10692 10690 10688 10686 10684 10682 10679 10675 10672 10669 10665 10662 10658 10655 10651 10648 10645 10642 10638 10635 10631 10628 10624 10619 10615 10610 10606 10603 10599 10596 10592 10588 10584 10581 10577 10574 10571 10568 10563 10556 10547 10543 10544 10542 10540 10541 10541 10542
10699 10699 10699 10698 10697 10697 10696 10696 10695 10694 10692 10691 10689 10688 10686 10684 10683 10681 10678 10676 10673 10670 10666 10663 10660 10657 10654 10650 10647 10643 10640 10637 10633 10630 10626 10623 10619 10615 10610 10605 10601 10597 10594 10590 10586 10582 10578 10573 10569 10566 10563 10560 10556 10554 10550 10543 10536 10535 10533 10530 10530 10531 10530
10694 10694 10693 10692 10691 10691 10690 10689 10688 10687 10685 10684 10682 10680 10678 10677 10675 10673 10671 10668 10665 10661 10658 10655 10652 10649 10646 10642 10638 10635 10632 10628 10624 10621 10617 10613 10610 10606 10601 10596 10592 10589 10584 10580 10576 10571 10567 10563 10558 10555 10551 10549 10546 10543 10540 10536 10530 10526 10526 10523 10520 10522 10522
10688 10688 10687 10687 10686 10685 10684 10683 10681 10680 10679 10677 10676 10674 10671 10670 10668 10666 10663 10661 10657 10654 10651 10648 10645 10641 10638 10634 10631 10628 10624 10620 10616 10613 10609 10604 10601 10597 10592 10588 10583 10579 10575 10570 10566 10561 10557 10552 10548 10545 10542 10539 10537 10534 10531 10529 10524 10517 10516 10516 10513 10511 10513
10683 10682 10682 10681 10680 10680 10678 10677 10675 10674 10672 10671 10670 10668 10665 10663 10661 10659 10657 10654 10651 10647 10644 10641 10637 10634 10630 10627 10624 10620 10616 10612 10609 10605 10600 10596 10592 10588 10584 10579 10574 10570 10565 10561 10556 10551 10547 10542 10538 10535 10532 10529 10527 10525 10522 10520 10517 10511 10506 10506 10505 10502 10502
10678 10677 10677 10676 10675 10675 10673 10672 10670 10668 10667 10666 10664 10662 10659 10657 10655 10652 10650 10647 10644 10640 10637 10634 10630 10627 10623 10620 10617 10613 10609 10605 10601 10597 10592 10588 10584 10580 10575 10570 10565 10560 10556 10552 10547 10542 10537 10532 10529 10525 10522 10519 10516 10514 10513 10510 10508 10504 10499 10496 10495 10494 10491
10674 10673 10672 10672 10671 10670 10668 10666 10664 10663 10661 10660 10658 10655 10653 10651 10648 10646 10643 10640 10637 10634 10630 10627 10624 10620 10617 10614 10610 10606 10601 10597 10593 10588 10584 10579 10575 10571 10566 10561 10557 10551 10547 10542 10537 10532 10527 10522 10519 10515 10511 10508 10506 10503 10501 10499 10497 10495 10492 10487 10485 10484 10482
10669 10668 10667 10666 10665 10664 10662 10660 10658 10656 10655 10653 10651 10649 10646 10644 10642 10639 10636 10633 10630 10627 10624 10620 10617 10614 10611 10607 10603 10599 10594 10590 10585 10580 10575 10570 10565 10561 10557 10552 10547 10542 10537 10532 10527 10522 10518 10513 10509 10505 10501 10498 10495 10493 10490 10488 10486 10484 10482 10479 10475 10474 10473
10663 10662 10661 10660 10659 10657 10655 10653 10651 10650 10648 10646 10644 10642 10640 10637 10635 10632 10630 10627 10623 10620 10617 10614 10611 10607 10604 10600 10596 10591 10587 10582 10577 10571 10566 10561 10556 10552 10547 10542 10538 10532 10527 10521 10516 10512 10508 10504 10499 10495 10492 10488 10485 10482 10479 10477 10474 10472 10470 10468 10465 10463 10462
10656 10655 10655 10654 10652 10651 10648 10646 10645 10644 10642 10640 10638 10636 10633 10631 10628 10626 10623 10620 10617 10614 10610 10607 10604 10600 10597 10593 10588 10584 10579 10574 10569 10563 10558 10553 10547 10542 10537 10533 10528 10523 10518 10512 10507 10502 10498 10495 10491 10486 10482 10478 10474 10472 10469 10466 10463 10461 10458 10456 10454 10452 10450
10650 10649 10649 10648 10647 10645 10642 10640 10639 10638 10636 10634 10631 10629 10627 10624 10621 10619 10616 10613 10610 10607 10604 10601 10597 10593 10589 10585 10580 10576 10571 10566 10561 10555 10550 10545 10539 10534 10528 10524 10519 10514 10510 10505 10500 10494 10489 10485 10481 10477 10473 10468 10464 10461 10458 10455 10452 10450 10447 10443 10441 10439 10437
10644 10643 10643 10642 10640 10638 10636 10633 10632 10632 10630 10627 10625 10622 10620 10618 10615 10612 10610 10607 10603 10600 10597 10594 10590 10586 10582 10577 10572 10567 10563 10558 10553 10548 10542 10537 10531 10525 10520 10515 10510 10505 10501 10497 10493 10488 10482 10477 10472 10468 10463 10459 10454 10451 10448 10445 10442 10438 10435 10431 10428 10425 10423
10638 10638 10637 10635 10634 10631 10629 10627 10626 10625 10623 10620 10618 10616 10614 10611 10609 10606 10603 10600 10597 10593 10590 10586 10582 10578 10573 10568 10564 10559 10554 10551 10546 10540 10535 10529 10523 10518 10512 10506 10501 10496 10491 10487 10483 10479 10474 10469 10465 10460 10455 10450 10446 10441 10437 10434 10431 10428 10423 10419 10415 10412 10409
10632 10632 10631 10629 10627 10625 10623 10621 10620 10619 10616 10614 10612 10610 10608 10605 10602 10599 10596 10593 10589 10586 10582 10578 10574 10569 10565 10560 10556 10551 10546 10542 10538 10533 10527 10521 10515 10510 10504 10498 10492 10487 10482 10476 10472 10467 10463 10459 10455 10451 10447 10442 10438 10433 10429 10424 10420 10416 10412 10407 10403 10400 10396
10627 10626 10625 10623 10621 10618 10616 10615 10615 10613 10610 10608 10606 10604 10601 10599 10596 10592 10589 10586 10582 10578 10574 10570 10566 10562 10557 10553 10548 10543 10538 10534 10529 10524 10519 10513 10507 10501 10496 10490 10484 10478 10472 10466 10461 10456 10451 10447 10443 10439 10435 10431 10427 10423 10419 10414 10409 10405 10401 10396 10392 10388 10385
10620 10619 10618 10616 10614 10612 10610 10609 10608 10606 10604 10602 10600 10597 10595 10592 10589 10585 10582 10579 10575 10571 10567 10563 10559 10554 10550 10545 10540 10535 10530 10525 10520 10515 10510 10504 10499 10493 10487 10482 10476 10470 10464 10458 10452 10446 10441 10436 10432 10428 10423 10419 10414 10410 10406 10403 10399 10395 10391 10386 10381 10377 10374
10614 10612 10611 10610 10608 10606 10605 10603 10601 10599 10597 10595 10593 10591 10588 10585 10582 10578 10575 10571 10568 10564 10560 10556 10551 10547 10542 10537 10532 10527 10522 10517 10512 10507 10502 10497 10491 10485 10479 10473 10468 10463 10456 10450 10445 10439 10433 10427 10422 10417 10413 10408 10403 10398 10394 10390 10386 10384 10380 10376 10372 10367 10364
10607 10606 10605 10603 10602 10601 10598 10596 10594 10593 10591 10589 10587 10584 10581 10578 10575 10571 10568 10564 10560 10557 10553 10549 10544 10539 10535 10530 10524 10519 10514 10509 10504 10499 10494 10489 10483 10477 10471 10466 10460 10455 10449 10443 10437 10431 10425 10419 10414 10408 10403 10398 10393 10388 10383 10379 10374 10371 10368 10365 10363 10359 10355
10602 10600 10599 10597 10596 10594 10592 10590 10588 10587 10585 10583 10580 10577 10574 10571 10568 10564 10560 10557 10553 10550 10545 10541 10537 10532 10527 10522 10517 10511 10506 10501 10496 10491 10485 10480 10474 10469 10463 10458 10452 10447 10441 10435 10430 10424 10418 10412 10406 10400 10395 10390 10384 10379 10374 10370 10366 10362 10358 10354 10353 10350 10346
10596 10594 10592 10591 10589 10587 10586 10584 10581 10580 10578 10576 10573 10570 10567 10564 10560 10557 10554 10550 10546 10543 10538 10533 10529 10524 10519 10515 10510 10504 10499 10493 10488 10482 10477 10472 10467 10461 10456 10450 10445 10439 10433 10428 10422 10417 10411 10405 10398 10393 10387 10382 10376 10370 10365 10361 10357 10354 10350 10346 10344 10341 10337
10589 10587 10585 10584 10582 10580 10579 10577 10575 10573 10571 10568 10565 10562 10559 10557 10554 10550 10547 10543 10539 10535 10531 10526 10521 10517 10512 10507 10503 10498 10492 10486 10480 10475 10470 10465 10460 10454 10449 10443 10437 10432 10426 10421 10415 10409 10403 10397 10391 10386 10380 10375 10369 10363 10358 10353 10348 10344 10340 10337 10335 10332 10328
10582 10580 10579 10577 10575 10574 10572 10571 10568 10566 10563 10561 10558 10555 10553 10550 10547 10544 10540 10536 10532 10528 10523 10518 10514 10509 10505 10500 10495 10490 10485 10479 10474 10468 10463 10458 10453 10448 10442 10437 10431 10425 10420 10414 10408 10402 10397 10391 10385 10379 10374 10368 10363 10357 10352 10347 10342 10336 10331 10327 10324 10321 10319
10575 10574 10573 10571 10569 10568 10566 10564 10561 10558 10556 10554 10551 10548 10546 10543 10540 10536 10533 10529 10525 10521 10516 10511 10507 10502 10497 10492 10488 10483 10478 10473 10467 10462 10457 10452 10447 10441 10436 10430 10425 10419 10414 10408 10402 10396 10390 10385 10379 10374 10368 10363 10357 10351 10347 10342 10337 10332 10326 10321 10317 10313 10311
10569 10568 10566 10565 10563 10561 10559 10557 10554 10552 10549 10547 10544 10542 10539 10536 10533 10529 10526 10522 10518 10513 10509 10504 10500 10495 10490 10485 10481 10476 10471 10466 10461 10457 10452 10447 10441 10436 10430 10424 10419 10413 10407 10401 10395 10389 10383 10378 10373 10367 10362 10357 10351 10346 10341 10337 10333 10328 10323 10318 10314 10309 10306
10563 10562 10560 10558 10556 10554 10552 10550 10547 10545 10543 10540 10537 10535 10532 10529 10526 10522 10519 10515 10510 10506 10502 10497 10493 10488 10483 10479 10474 10469 10464 10460 10455 10450 10445 10440 10435 10429 10423 10418 10412 10406 10400 10394 10388 10382 10376 10371 10366 10361 10356 10351 10346 10341 10337 10332 10328 10324 10319 10314 10310 10305 10301
10557 10555 10553 10551 10549 10547 10545 10543 10540 10538 10536 10533 10531 10528 10525 10522 10519 10516 10512 10508 10503 10499 10495 10491 10486 10482 10477 10473 10468 10463 10458 10454 10449 10444 10439 10434 10428 10423 10417 10411 10406 10399 10394 10387 10381 10375 10370 10364 10360 10355 10350 10345 10340 10335 10331 10327 10323 10319 10314 10310 10305 10300 10296
10550 10548 10546 10544 10542 10540 10538 10536 10534 10531 10529 10526 10524 10521 10518 10516 10513 10509 10505 10501 10497 10493 10489 10484 10480 10475 10471 10466 10462 10457 10453 10448 10444 10439 10433 10428 10422 10417 10411 10405 10399 10393 10387 10381 10375 10369 10364 10359 10355 10350 10345 10340 10335 10330 10326 10322 10319 10315 10310 10304 10300 10296 10291
10543 10542 10540 10537 10535 10533 10531 10529 10527 10525 10522 10520 10517 10515 10512 10509 10506 10503 10499 10495 10491 10486 10482 10478 10473 10469 10465 10461 10457 10452 10447 10443 10438 10433 10427 10422 10416 10411 10405 10399 10393 10387 10381 10376 10370 10365 10360 10354 10350 10346 10341 10336 10331 10326 10322 10318 10314 10310 10306 10300 10295 10291 10287